This is the latest recevied weather packets stored in our database for station/object IZ1UQG-1. If no packets are shown the sender has not sent any weather packets the latest 10 day(s).
| Time | Temp. | Humidity | Pressure | Rain* | Wind** | Luminosity | Snow |
|---|---|---|---|---|---|---|---|
| 1777022359 | 23.89° C | 37% | 1016.5 hPa | 195.58 mm | - | - | - |
| 1777022059 | 23.33° C | 37% | 1016.7 hPa | 253.24 mm | - | - | - |
| 1777021759 | 23.33° C | 37% | 1016.6 hPa | 247.9 mm | - | - | - |
| 1777021459 | 22.78° C | 38% | 1016.7 hPa | 247.4 mm | - | - | - |
| 1777021159 | 22.22° C | 39% | 1016.8 hPa | 205.99 mm | - | - | - |
| 1777020859 | 22.22° C | 39% | 1016.9 hPa | 10.67 mm | - | - | - |
| 1777020559 | 22.22° C | 40% | 1017.1 hPa | 10.16 mm | - | - | - |
| 1777020259 | 21.67° C | 40% | 1017.1 hPa | 19.3 mm | - | - | - |
| 1777019959 | 21.67° C | 41% | 1017.2 hPa | 223.52 mm | - | - | - |
| 1777019659 | 20.56° C | 43% | 1017.2 hPa | 10.16 mm | - | - | - |
| 1777019359 | 20.56° C | 44% | 1017.3 hPa | 14.73 mm | - | - | - |
| 1777019059 | 20° C | 44% | 1017.3 hPa | 3.81 mm | - | - | - |
| 1777018759 | 20.56° C | 43% | 1017.4 hPa | 3.3 mm | - | - | - |
| 1777018459 | 20.56° C | 43% | 1017.5 hPa | 27.69 mm | - | - | - |
| 1777018159 | 20° C | 43% | 1017.7 hPa | 28.7 mm | - | - | - |
| 1777017859 | 19.44° C | 44% | 1017.8 hPa | 61.21 mm | - | - | - |
| 1777017559 | 19.44° C | 45% | 1017.9 hPa | 44.2 mm | - | - | - |
| 1777017259 | 19.44° C | 47% | 1017.9 hPa | 108.97 mm | - | - | - |
| 1777016959 | 18.89° C | 49% | 1017.9 hPa | 96.52 mm | - | - | - |
| 1777016659 | 18.33° C | 49% | 1017.9 hPa | 111 mm | - | - | - |
| 1777016359 | 18.33° C | 50% | 1017.9 hPa | 130.81 mm | - | - | - |
| 1777016059 | 18.33° C | 51% | 1018 hPa | 152.4 mm | - | - | - |
| 1777015759 | 17.78° C | 51% | 1018 hPa | 141.73 mm | - | - | - |
| 1777015459 | 17.78° C | 51% | 1018.1 hPa | 155.19 mm | - | - | - |
| 1777015159 | 17.78° C | 52% | 1018.3 hPa | 129.29 mm | - | - | - |
* Rain latest hour (hover to see other rain measurements)
** Current wind speed in m/s (hover to see current wind gust speed)